Regional Weather Roundup
Issued by NWS

Home | Current Version | Previous Version | Text Only | Print | Product List | Glossary On
Versions: 1 2 3 4 5 6 7 8 9 10 11 12 13 14 15 16 17 18 19 20 21 22 23 24 25 26 27 28 29 30 31 32 33 34 35 36 37 38 39 40 41 42 43 44 45 46 47 48 49 50
000
ASCA44 KEWX 161720
RWRMX

LATIN AMERICA AND CARIBBEAN REGIONAL WEATHER ROUNDUP
NATIONAL WEATHER SERVICE AUSTIN/SAN ANTONIO TX
1200 PM CDT TUE SEP 16 2014

NOTE: "FAIR" INDICATED FEW OR NO CLOUDS BELOW 12,000 FEET WITH NO
SIGNIFICANT WEATHER AND/OR OBSTRUCTIONS TO VISIBILITY.

BAJA CALIFORNIA

CITY           SKY/WX    TMP DP  RH WIND       PRES   REMARKS
LORETO           N/A    N/A N/A N/A MISG        N/A
LA PAZ           N/A    N/A N/A N/A MISG        N/A
MEXICALI       PTSUNNY   93  64  38 E8        29.83  HX  95
S.J. DEL CABO    N/A    N/A N/A N/A MISG        N/A
TIJUANA        SUNNY     93  63  36 W7        29.80S HX  94

NORTHWESTERN MEXICO

CITY           SKY/WX    TMP DP  RH WIND       PRES   REMARKS
CULIACAN       LGT RAIN  86  79  79 E12       29.89  HX  99
DURANGO        MOSUNNY   68  55  64 E6        30.31S
GUAYMAS        RAIN      84  79  84 E12       29.72  HX  96
HERMOSILLO     CLOUDY    84  70  61 SE17      29.83
CD. JUAREZ     CLOUDY    70  64  83 NE9       30.18
LOS MOCHIS     LGT RAIN  77  73  88 E12       29.83F
OBREGON        CLOUDY    82  73  74 SE20      29.81

NORTHEASTERN MEXICO

CITY           SKY/WX    TMP DP  RH WIND       PRES   REMARKS
CHIHUAHUA      PTSUNNY   73  57  56 E9        30.23
MATAMOROS      PTSUNNY   84  77  79 S7        30.05  HX  94
MONCLOVA         N/A    N/A N/A N/A MISG        N/A
MONTERREY      PTSUNNY   84  66  54 CALM      30.07F
NUEVO LAREDO   PTSUNNY   86  73  66 CALM      30.05  HX  93
PIEDRAS NEGRAS PTSUNNY   77  70  78 N7        30.10R
REYNOSA        CLOUDY    81  72  74 S5        30.03
SALTILLO       PTSUNNY   72  57  60 N9        30.30S
TORREON        MOSUNNY   79  59  50 E6        30.17F
CD. VICTORIA   MOSUNNY   82  70  65 CALM      30.08

WESTERN MEXICO

CITY           SKY/WX    TMP DP  RH WIND       PRES   REMARKS
AGUASCALIENTES MOSUNNY   70  48  46 E10       30.31
COLIMA         MOSUNNY   77  68  73 CALM      30.02R
DEL BAJIO      MOSUNNY   73  52  46 N12       30.33S
GUADALAJARA    PTSUNNY   73  59  60 CALM      30.22
MANZANILLO     SUNNY     91  75  59 SW8       29.85S HX 102
MAZATLAN       PTSUNNY   82  73  74 SE7       29.88F
URUAPAN        PTSUNNY   75  59  57 CALM      30.19F
ZACATECAS      PTSUNNY   70  50  49 SE17      30.35S

CENTRAL MEXICO

CITY           SKY/WX    TMP DP  RH WIND       PRES   REMARKS
CUERNAVACA     PTSUNNY   75  57  53 CALM      30.18F
MEXICO CITY    CLOUDY    63  50  63 N9        30.38F
MORELIA        PTSUNNY   68  57  68 NE5       30.28
POZA RICA      CLOUDY    75  70  83 NW9       30.08S HAZE
PUEBLA         PTSUNNY   73  61  64 N12       30.40S
QUERETARO      CLOUDY    66  54  63 E12       30.37F
S. LUIS POTOSI CLOUDY    66  54  63 E10       30.33S
TAMPICO        PTSUNNY   77  73  88 NE6       30.06S
TOLUCA         PTSUNNY   63  45  51 NE17      30.42S

SOUTHERN MEXICO

CITY           SKY/WX    TMP DP  RH WIND       PRES   REMARKS
ACAPULCO       PTSUNNY   86  73  66 E6        29.87F HX  93
B. DE HUATULCO CLOUDY    75  68  78 E12       30.01
OAXACA         CLOUDY    63  61  94 N8        30.29F
P. ESCONDIDO   CLOUDY    81  72  74 E9        30.04S
VERACRUZ       CLOUDY    81  72  74 N9        30.01S
ZIHUATANEJO    MOSUNNY   88  73  62 SE5       29.88F HX  96

YUCATAN PENINSULA

CITY           SKY/WX    TMP DP  RH WIND       PRES   REMARKS
CAMPECHE       PTSUNNY   84  77  79 E12       29.97F HX  94
CANCUN         PTSUNNY   90  77  66 E13       30.03F HX 102
CHETUMAL       MOSUNNY   86  77  74 E12       29.98F HX  97
CD. DEL CARMEN PTSUNNY   84  73  70 SE9       29.97  HX  91
COZUMEL        PTSUNNY   84  75  74 SE10      30.04S HX  92
MERIDA         PTSUNNY   88  72  58 E10       30.01F HX  94
MINATITLAN     CLOUDY    81  72  74 S12       29.98
TAPACHULA        N/A    N/A N/A N/A MISG        N/A
TUX. GUTIERREZ LGT RAIN  77  72  83 SE2       30.08F
VILLAHERMOSA   CLOUDY    84  77  79 CALM      30.00S HX  94

CENTRAL AMERICA

CITY           SKY/WX    TMP DP  RH WIND       PRES   REMARKS
BELIZE CITY    PTSUNNY   86  79  79 E7        29.98F HX  99
MANAGUA        MOSUNNY   86  75  70 MISG      29.92F HX  95

CARIBBEAN

CITY           SKY/WX    TMP DP  RH WIND       PRES   REMARKS
ARUBA          MOSUNNY   90  77  66 E16       29.89F HX 102
CURACAO        MOSUNNY   90  77  66 E13       29.92F HX 102
KINGSTON       MOSUNNY   86  77  74 S7        29.97S HX  97
NASSAU         MOSUNNY   88  73  62 E8        30.05F HX  96
SAN JUAN       MOSUNNY   88  75  66 NE16      29.97F HX  97
SANTO DOMINGO  MOSUNNY   88  73  62 S8        29.94F HX  96
ST. KITTS      MOSUNNY   88  73  62 NE15      29.97F HX  96
ST. MAARTEN    MOSUNNY   88  73  62 SE8       29.97S HX  96

$$



USA.gov is the U.S. government's official web portal to all federal, state and local government web resources and services.